Tracking 25709 objects as of 25-May-2022
HD Live streaming from Space Station
objects crossing your sky now

SL-12 R/B(2)

Track SL-12 R/B(2) now!


NORAD ID: 18387
Int'l Code: 1987-084D
Perigee: 35,747.6 km
Apogee: 35,975.0 km
Inclination: 13.0 °
Period: 1,439.5 minutes
Semi major axis: 42232 km
RCS: 2.0993 m2 (large)
Launch date: October 1, 1987
Source: Commonwealth of Independent States (former USSR) (CIS)
Launch site: TYURATAM MISSILE AND SPACE COMPLEX (TTMTR)

Note: This is a ROCKET BODY
aabbcc
Your satellite tracking list
Your tracking list is empty




NASA's NSSDC Master Catalog

Two Line Element Set (TLE):
1 18387U 87084D   22143.60946889 -.00000034  00000-0  00000-0 0  9994
2 18387  13.0044 337.4099 0026923 201.4986 167.8349  1.00031329133912
Source of the keplerian elements: AFSPC